Regional Weather Roundup
Issued by NWS

Home | Current Version | Previous Version | Graphics & Text | Print | Product List | Glossary On
Versions: 1 2 3 4 5 6 7 8 9 10 11 12 13 14 15 16 17 18 19 20 21 22 23 24 25 26 27 28 29 30 31 32 33 34 35 36 37 38 39 40 41 42 43 44 45 46 47 48 49 50
000
ASUS43 KLOT 231800
RWRIL

ILLINOIS REGIONAL WEATHER ROUNDUP
NATIONAL WEATHER SERVICE CHICAGO/ROMEOVILLE IL
100 PM CDT WED JUL 23 2014

NOTE: "FAIR" INDICATES FEW OR NO CLOUDS BELOW 12,000 FEET WITH NO
SIGNIFICANT WEATHER AND/OR OBSTRUCTIONS TO VISIBILITY.

* THESE STATIONS ARE NOT UNDER NWS QUALITY CONTROL. THEY ALSO MAY NOT
  REPORT WEATHER SUCH AS PRECIPITATION OR FOG.

ILZ001-002-007-009-015-016-024-231900-
NORTHWEST ILLINOIS

CITY           SKY/WX    TMP DP  RH WIND       PRES   REMARKS
MOLINE         SUNNY     79  55  43 NE13G22   30.17R
6HR MIN TEMP:  70; 6HR MAX TEMP:  79;

STERLING*      MOSUNNY   79  57  47 NE12G18   30.18S HX  80
$$

ILZ003-004-008-010-011-017-018-231900-
NORTH CENTRAL ILLINOIS

CITY           SKY/WX    TMP DP  RH WIND       PRES   REMARKS
ROCKFORD       PTSUNNY   75  54  47 NE13      30.19F
6HR MIN TEMP:  65; 6HR MAX TEMP:  78;

FREEPORT*      MOSUNNY   74  60  60 N8G16     30.21S
$$

ILZ005-006-012>014-019>023-231900-
NORTHEAST ILLINOIS

CITY           SKY/WX    TMP DP  RH WIND       PRES   REMARKS
CHICAGO-OHARE  MOSUNNY   74  48  39 NE20G26   30.16F
6HR MIN TEMP:  65; 6HR MAX TEMP:  75;

CHICAGO-MIDWAY MOSUNNY   72  56  57 NE20      30.16F
6HR MIN TEMP:  66; 6HR MAX TEMP:  73;

AURORA         MOSUNNY   76  53  44 NE9G21    30.16S
6HR MIN TEMP:  64; 6HR MAX TEMP:  76;

LANSING*       PTSUNNY   67  55  64 N17G25    30.16F
WAUKEGAN       SUNNY     70  52  52 N12G20    30.17R
6HR MIN TEMP:  63; 6HR MAX TEMP:  70;

DUPAGE AIRPORT SUNNY     76  52  43 N23       30.16S
6HR MIN TEMP:  64; 6HR MAX TEMP:  76;

WHEELING       SUNNY     74  49  41 N17G24    30.18S
6HR MIN TEMP:  65; 6HR MAX TEMP:  74;

NORTHERLY ISL    N/A     66  59  78 MISG        N/A
$$

LMZ740>746-231900-
SOUTHERN LAKE MICHIGAN

STATION/POSITION SKY/WX   TEMP    WIND        PRES    VSBY  WAVE
                          AIR SEA DIR/SP/G                  HT/PER
                          (F)     (DEG/KT/KT) (MB)    (MI)  (FT/S)
SOUTHERN BUOY              59 60  350/ 17/ 21 1020.9S         5/ 6
WAUKEGAN HARBOR            62      20/ 18/ 23 1022.7S
HARRISON CRIB              62     360/ 22/ 26   N/A
BURNHAM HARBOR             65     360/ 12/ 19   N/A
CALUMET HARBOR             66     340/ 12/ 19 1020.6R
MICHIGAN CITY              63     350/ 21/ 26   N/A
$$

ILZ025>027-034>036-040-047-049-050-058-095>099-231900-
WEST-CENTRAL ILLINOIS

CITY           SKY/WX    TMP DP  RH WIND       PRES   REMARKS
QUINCY         MOSUNNY   80  66  62 N14       30.13S HX  82
GALESBURG*     MOSUNNY   79  62  56 NE13      30.16S HX  80
MACOMB*        SUNNY     76  62  60 NE8G17    30.17S
$$

ILZ028>032-037-038-041>044-048-051>054-059>061-231900-
CENTRAL ILLINOIS

CITY           SKY/WX    TMP DP  RH WIND       PRES   REMARKS
PEORIA         SUNNY     79  58  48 E15G22    30.15R HX  80
6HR MIN TEMP:  71; 6HR MAX TEMP:  80;

SPRINGFIELD    SUNNY     81  63  54 N15G23    30.11S HX  82
6HR MIN TEMP:  74; 6HR MAX TEMP:  81;

TAYLORVILLE    NOT AVBL
$$

ILZ033-039-045-046-055>057-062-063-231900-
EAST-CENTRAL ILLINOIS

CITY           SKY/WX    TMP DP  RH WIND       PRES   REMARKS
CHAMPAIGN      SUNNY     78  62  57 N16G23    30.09F HX  80
MATTOON        CLOUDY    75  64  68 N16       30.06F
$$

ILZ079-100>102-231900-
SOUTHWEST ILLINOIS

CITY           SKY/WX    TMP DP  RH WIND       PRES   REMARKS
BELLEVILLE     CLOUDY    76  73  91 NE9       30.05S
CAHOKIA*       PTSUNNY   83  73  72 N13G22    30.05S HX  89
SPARTA*        PTSUNNY   79  70  73 S5        30.04F HX  81
$$

ILZ064>066-069>071-074>076-080>082-084>086-088>090-092>094-231900-
SOUTH-CENTRAL ILLINOIS

CITY           SKY/WX    TMP DP  RH WIND       PRES   REMARKS
CARBONDALE     CLOUDY    73  68  84 S7        30.02F
6HR MIN TEMP:  71; 6HR MAX TEMP:  78; 6HR PCP:  0.16;

MARION         CLOUDY    73  68  83 S12       30.03F
MT. VERNON     CLOUDY    75  66  73 NW3       30.05S
SALEM*         LGT RAIN  77  73  88 W3        30.06F
$$

ILZ067-068-072-073-078-083-087-091-231900-
SOUTHEAST ILLINOIS

CITY           SKY/WX    TMP DP  RH WIND       PRES   REMARKS
HARRISBURG*    CLOUDY    72  69  92 CALM      30.03R
ROBINSON*      CLOUDY    75  72  92 N14       30.06S FOG
$$

ABBREVIATIONS USED IN REMARKS
   TC - TEMPERATURE IN CELSIUS
  WCI - WIND CHILL INDEX
   HX - HEAT INDEX
  VSB - VISIBILITY
$$



USA.gov is the U.S. government's official web portal to all federal, state and local government web resources and services.